Time,TemperatureF,DewpointF,PressureIn,WindDirection,WindDirectionDegrees,WindSpeedMPH,WindSpeedGustMPH,Humidity,HourlyPrecipIn,Conditions,Clouds,dailyrainin,SoftwareType,DateUTC
2013-04-01 00:02:00,49.0,32.2,29.86,NNE,15,2.0,2.0,52,0.00,,SKC,0.00,VWS V14.01,2013-04-01 05:02:00,
2013-04-01 00:07:00,49.2,31.9,29.86,NNE,31,3.0,8.0,51,0.00,,SKC,0.00,VWS V14.01,2013-04-01 05:07:00,
2013-04-01 00:13:00,49.5,32.1,29.86,NNE,26,1.0,8.0,51,0.00,,SKC,0.00,VWS V14.01,2013-04-01 05:13:00,
2013-04-01 00:18:00,49.5,32.1,29.87,NNE,26,2.0,9.0,51,0.00,,SKC,0.00,VWS V14.01,2013-04-01 05:18:00,
2013-04-01 00:23:00,49.4,31.6,29.87,NNE,13,6.0,14.0,50,0.00,,SKC,0.00,VWS V14.01,2013-04-01 05:23:00,
2013-04-01 00:28:00,49.2,30.4,29.88,NNE,24,3.0,11.0,48,0.00,,SKC,0.00,VWS V14.01,2013-04-01 05:28:00,
2013-04-01 00:33:00,49.2,30.4,29.89,North,5,13.0,13.0,48,0.00,,SKC,0.00,VWS V14.01,2013-04-01 05:33:00,
2013-04-01 00:38:00,49.1,30.3,29.89,NNE,20,8.0,12.0,48,0.00,,SKC,0.00,VWS V14.01,2013-04-01 05:38:00,
2013-04-01 00:43:00,48.8,30.5,29.89,NNE,18,6.0,13.0,49,0.00,,SKC,0.00,VWS V14.01,2013-04-01 05:43:00,
2013-04-01 00:48:00,48.3,30.0,29.89,NNE,23,7.0,17.0,49,0.00,,SKC,0.00,VWS V14.01,2013-04-01 05:48:00,
2013-04-01 00:53:00,47.9,30.7,29.90,NE,34,5.0,17.0,51,0.00,,SKC,0.00,VWS V14.01,2013-04-01 05:53:00,
2013-04-01 00:58:00,47.4,30.7,29.90,North,5,9.0,17.0,52,0.00,,SKC,0.00,VWS V14.01,2013-04-01 05:58:00,
2013-04-01 01:03:00,47.0,31.2,29.91,NNE,29,10.0,19.0,54,0.00,,SKC,0.00,VWS V14.01,2013-04-01 06:03:00,
2013-04-01 01:08:00,46.6,31.8,29.91,NE,36,11.0,20.0,56,0.00,,SKC,0.00,VWS V14.01,2013-04-01 06:08:00,
2013-04-01 01:13:00,46.2,31.8,29.92,NNE,15,16.0,20.0,57,0.00,,SKC,0.00,VWS V14.01,2013-04-01 06:13:00,
2013-04-01 01:18:00,45.9,32.0,29.91,NNE,25,9.0,16.0,58,0.00,,SKC,0.00,VWS V14.01,2013-04-01 06:18:00,
2013-04-01 01:23:00,45.3,31.8,29.92,NE,47,13.0,19.0,59,0.00,,SKC,0.00,VWS V14.01,2013-04-01 06:23:00,
2013-04-01 01:28:00,44.7,31.7,29.92,NNE,17,17.0,19.0,60,0.00,,SKC,0.00,VWS V14.01,2013-04-01 06:28:00,
2013-04-01 01:33:00,44.1,31.9,29.92,NE,36,5.0,21.0,62,0.00,,SKC,0.00,VWS V14.01,2013-04-01 06:33:00,
2013-04-01 01:38:00,43.8,32.0,29.93,NNE,24,4.0,15.0,63,0.00,,SKC,0.00,VWS V14.01,2013-04-01 06:38:00,
2013-04-01 01:43:00,43.6,32.6,29.94,NNE,33,5.0,15.0,65,0.00,,SKC,0.00,VWS V14.01,2013-04-01 06:43:00,
2013-04-01 01:48:00,43.4,32.8,29.94,NE,34,9.0,17.0,66,0.00,,SKC,0.00,VWS V14.01,2013-04-01 06:48:00,
2013-04-01 01:53:00,43.1,32.9,29.93,NNE,12,9.0,17.0,67,0.00,,SKC,0.00,VWS V14.01,2013-04-01 06:53:00,
2013-04-01 01:58:00,42.9,33.1,29.94,NE,34,11.0,15.0,68,0.00,,SKC,0.00,VWS V14.01,2013-04-01 06:58:00,
2013-04-01 02:03:00,42.7,33.2,29.93,NE,42,10.0,15.0,69,0.00,,SKC,0.00,VWS V14.01,2013-04-01 07:03:00,
2013-04-01 02:08:00,42.4,33.7,29.94,NE,48,4.0,14.0,71,0.00,,SKC,0.00,VWS V14.01,2013-04-01 07:08:00,
2013-04-01 02:13:00,42.2,33.5,29.94,NNE,30,8.0,18.0,71,0.00,,SKC,0.00,VWS V14.01,2013-04-01 07:13:00,
2013-04-01 02:18:00,42.0,33.6,29.94,NE,42,2.0,11.0,72,0.00,,SKC,0.00,VWS V14.01,2013-04-01 07:18:00,
2013-04-01 02:23:00,41.8,33.8,29.95,NNE,32,2.0,11.0,73,0.00,,SKC,0.00,VWS V14.01,2013-04-01 07:23:00,
2013-04-01 02:28:00,41.6,33.9,29.95,NNE,22,4.0,6.0,74,0.00,,SKC,0.00,VWS V14.01,2013-04-01 07:28:00,
2013-04-01 02:33:00,41.4,34.1,29.95,NNE,24,2.0,7.0,75,0.00,,SKC,0.00,VWS V14.01,2013-04-01 07:33:00,
2013-04-01 02:38:00,41.3,34.3,29.96,NNE,28,0.0,5.0,76,0.00,,SKC,0.00,VWS V14.01,2013-04-01 07:38:00,
2013-04-01 02:43:00,41.0,34.0,29.95,NNE,22,5.0,14.0,76,0.00,,SKC,0.00,VWS V14.01,2013-04-01 07:43:00,
2013-04-01 02:48:00,40.7,34.1,29.95,NNE,13,9.0,12.0,77,0.00,,SKC,0.00,VWS V14.01,2013-04-01 07:48:00,
2013-04-01 02:54:00,40.3,34.0,29.96,NNE,15,3.0,12.0,78,0.00,,SKC,0.00,VWS V14.01,2013-04-01 07:54:00,
2013-04-01 02:59:00,40.0,33.7,29.97,NNE,26,3.0,10.0,78,0.00,,SKC,0.00,VWS V14.01,2013-04-01 07:59:00,
2013-04-01 03:04:00,39.8,33.8,29.97,NE,36,9.0,13.0,79,0.00,,SKC,0.00,VWS V14.01,2013-04-01 08:04:00,
2013-04-01 03:09:00,39.5,33.5,29.97,NE,40,11.0,13.0,79,0.00,,SKC,0.00,VWS V14.01,2013-04-01 08:09:00,
2013-04-01 03:14:00,39.1,33.5,29.97,NE,40,8.0,16.0,80,0.00,,SKC,0.00,VWS V14.01,2013-04-01 08:14:00,
2013-04-01 03:19:00,38.8,33.5,29.97,NE,34,5.0,15.0,81,0.00,,SKC,0.00,VWS V14.01,2013-04-01 08:19:00,
2013-04-01 03:24:00,38.6,33.3,29.98,NE,34,4.0,15.0,81,0.00,,SKC,0.00,VWS V14.01,2013-04-01 08:24:00,
2013-04-01 03:29:00,38.5,33.5,29.98,NE,42,6.0,10.0,82,0.00,,SKC,0.00,VWS V14.01,2013-04-01 08:29:00,
2013-04-01 03:34:00,38.3,33.3,29.98,NE,39,10.0,12.0,82,0.00,,SKC,0.00,VWS V14.01,2013-04-01 08:34:00,
2013-04-01 03:39:00,38.2,33.2,29.98,NNE,28,5.0,12.0,82,0.00,,SKC,0.00,VWS V14.01,2013-04-01 08:39:00,
2013-04-01 03:44:00,38.1,33.1,29.98,NNE,12,6.0,11.0,82,0.00,,SKC,0.00,VWS V14.01,2013-04-01 08:44:00,
2013-04-01 03:49:00,37.9,32.9,29.98,NE,35,2.0,14.0,82,0.00,,SKC,0.00,VWS V14.01,2013-04-01 08:49:00,
2013-04-01 03:54:00,37.7,32.7,29.99,NNE,31,5.0,14.0,82,0.00,,SKC,0.00,VWS V14.01,2013-04-01 08:54:00,
2013-04-01 03:59:00,37.5,32.8,29.99,NNE,30,3.0,12.0,83,0.00,,SKC,0.00,VWS V14.01,2013-04-01 08:59:00,
2013-04-01 04:04:00,37.2,32.5,30.00,NNE,27,4.0,4.0,83,0.00,,SKC,0.00,VWS V14.01,2013-04-01 09:04:00,
2013-04-01 04:09:00,37.1,32.4,30.00,NNE,26,2.0,10.0,83,0.00,,SKC,0.00,VWS V14.01,2013-04-01 09:09:00,
2013-04-01 04:14:00,36.9,32.2,30.00,North,5,5.0,7.0,83,0.00,,SKC,0.00,VWS V14.01,2013-04-01 09:14:00,
2013-04-01 04:19:00,36.7,32.0,30.00,NNE,16,6.0,12.0,83,0.00,,SKC,0.00,VWS V14.01,2013-04-01 09:19:00,
2013-04-01 04:24:00,36.5,31.8,30.00,NNE,32,5.0,6.0,83,0.00,,SKC,0.00,VWS V14.01,2013-04-01 09:24:00,
2013-04-01 04:29:00,36.4,31.7,30.00,NE,36,3.0,15.0,83,0.00,,SKC,0.00,VWS V14.01,2013-04-01 09:29:00,
2013-04-01 04:34:00,36.2,31.5,30.01,NNE,19,3.0,4.0,83,0.00,,SKC,0.00,VWS V14.01,2013-04-01 09:34:00,
2013-04-01 04:39:00,36.1,31.7,30.01,NNE,26,3.0,12.0,84,0.00,,SKC,0.00,VWS V14.01,2013-04-01 09:39:00,
2013-04-01 04:44:00,36.0,31.6,30.02,NNE,28,7.0,9.0,84,0.00,,SKC,0.00,VWS V14.01,2013-04-01 09:44:00,
2013-04-01 04:49:00,35.8,31.1,30.01,NNE,24,4.0,9.0,83,0.00,,SKC,0.00,VWS V14.01,2013-04-01 09:49:00,
2013-04-01 04:54:00,35.6,31.0,30.01,NNE,14,2.0,5.0,83,0.00,,SKC,0.00,VWS V14.01,2013-04-01 09:54:00,
2013-04-01 04:59:00,35.5,30.9,30.02,NNE,26,4.0,7.0,83,0.00,,SKC,0.00,VWS V14.01,2013-04-01 09:59:00,
2013-04-01 05:04:00,35.4,30.8,30.03,NNE,32,3.0,3.0,83,0.00,,SKC,0.00,VWS V14.01,2013-04-01 10:04:00,
2013-04-01 05:09:00,35.3,30.7,30.03,North,350,5.0,12.0,83,0.00,,SKC,0.00,VWS V14.01,2013-04-01 10:09:00,
2013-04-01 05:14:00,35.1,30.2,30.03,North,9,5.0,6.0,82,0.00,,SKC,0.00,VWS V14.01,2013-04-01 10:14:00,
2013-04-01 05:19:00,34.8,29.6,30.03,NE,34,7.0,13.0,81,0.00,,SKC,0.00,VWS V14.01,2013-04-01 10:19:00,
2013-04-01 05:24:00,34.6,29.7,30.03,NNE,16,4.0,7.0,82,0.00,,SKC,0.00,VWS V14.01,2013-04-01 10:24:00,
2013-04-01 05:29:00,34.4,29.5,30.03,NNE,14,4.0,14.0,82,0.00,,SKC,0.00,VWS V14.01,2013-04-01 10:29:00,
2013-04-01 05:34:00,34.4,29.5,30.04,NNE,30,6.0,9.0,82,0.00,,SKC,0.00,VWS V14.01,2013-04-01 10:34:00,
2013-04-01 05:39:00,34.2,29.3,30.04,NNE,18,5.0,18.0,82,0.00,,SKC,0.00,VWS V14.01,2013-04-01 10:39:00,
2013-04-01 05:44:00,33.9,28.7,30.05,NNE,24,11.0,14.0,81,0.00,,SKC,0.00,VWS V14.01,2013-04-01 10:44:00,
2013-04-01 05:49:00,33.7,28.2,30.05,North,5,7.0,14.0,80,0.00,,SKC,0.00,VWS V14.01,2013-04-01 10:49:00,
2013-04-01 05:54:00,33.5,28.0,30.06,NNE,12,6.0,9.0,80,0.00,,SKC,0.00,VWS V14.01,2013-04-01 10:54:00,
2013-04-01 06:02:00,33.2,27.1,30.06,NE,37,7.0,7.0,78,0.00,,SKC,0.00,VWS V14.01,2013-04-01 11:02:00,
2013-04-01 06:07:00,33.0,26.6,30.07,NE,38,3.0,12.0,77,0.00,,SKC,0.00,VWS V14.01,2013-04-01 11:07:00,
2013-04-01 06:12:00,32.9,26.5,30.07,NNE,26,3.0,12.0,77,0.00,,SKC,0.00,VWS V14.01,2013-04-01 11:12:00,
2013-04-01 06:17:00,32.8,26.4,30.08,NNE,28,7.0,9.0,77,0.00,,SKC,0.00,VWS V14.01,2013-04-01 11:17:00,
2013-04-01 06:22:00,32.6,26.2,30.08,North,5,1.0,10.0,77,0.00,,SKC,0.00,VWS V14.01,2013-04-01 11:22:00,
2013-04-01 06:27:00,32.4,26.0,30.08,NNE,17,4.0,7.0,77,0.00,,SKC,0.00,VWS V14.01,2013-04-01 11:27:00,
2013-04-01 06:32:00,32.1,25.7,30.08,NNE,28,2.0,9.0,77,0.00,,SKC,0.00,VWS V14.01,2013-04-01 11:32:00,
2013-04-01 06:37:00,31.9,25.5,30.08,NNE,31,5.0,8.0,77,0.00,,SKC,0.00,VWS V14.01,2013-04-01 11:37:00,
2013-04-01 06:42:00,31.7,25.3,30.08,NNE,19,4.0,10.0,77,0.00,,SKC,0.00,VWS V14.01,2013-04-01 11:42:00,
2013-04-01 06:48:00,31.5,25.4,30.09,NNE,28,0.0,7.0,78,0.00,,SKC,0.00,VWS V14.01,2013-04-01 11:48:00,
2013-04-01 06:53:00,31.3,25.2,30.09,NNE,15,0.0,7.0,78,0.00,,SKC,0.00,VWS V14.01,2013-04-01 11:53:00,
2013-04-01 06:58:00,31.2,25.5,30.09,NNE,26,2.0,5.0,79,0.00,,SKC,0.00,VWS V14.01,2013-04-01 11:58:00,
2013-04-01 07:03:00,31.0,25.3,30.10,NNE,25,5.0,5.0,79,0.00,,SKC,0.00,VWS V14.01,2013-04-01 12:03:00,
2013-04-01 07:08:00,30.8,24.1,30.10,NNE,26,2.0,10.0,76,0.00,,SKC,0.00,VWS V14.01,2013-04-01 12:08:00,
2013-04-01 07:13:00,30.6,23.3,30.10,NNE,16,3.0,10.0,74,0.00,,SKC,0.00,VWS V14.01,2013-04-01 12:13:00,
2013-04-01 07:18:00,30.5,22.6,30.10,NNE,13,3.0,7.0,72,0.00,,SKC,0.00,VWS V14.01,2013-04-01 12:18:00,
2013-04-01 07:23:00,30.3,22.0,30.11,NNE,13,0.0,9.0,71,0.00,,SKC,0.00,VWS V14.01,2013-04-01 12:23:00,
2013-04-01 07:28:00,30.2,21.9,30.11,North,11,0.0,7.0,71,0.00,,SKC,0.00,VWS V14.01,2013-04-01 12:28:00,
2013-04-01 07:33:00,30.2,22.3,30.11,North,355,0.0,7.0,72,0.00,,SKC,0.00,VWS V14.01,2013-04-01 12:33:00,
2013-04-01 07:38:00,30.1,22.2,30.12,North,11,0.0,6.0,72,0.00,,SKC,0.00,VWS V14.01,2013-04-01 12:38:00,
2013-04-01 07:43:00,30.0,22.1,30.12,NNE,13,0.0,6.0,72,0.00,,SKC,0.00,VWS V14.01,2013-04-01 12:43:00,
2013-04-01 07:48:00,30.1,22.2,30.12,NNE,14,0.0,7.0,72,0.00,,SKC,0.00,VWS V14.01,2013-04-01 12:48:00,
2013-04-01 07:53:00,30.1,22.5,30.13,NNE,13,0.0,7.0,73,0.00,,SKC,0.00,VWS V14.01,2013-04-01 12:53:00,
2013-04-01 07:58:00,30.3,22.7,30.13,North,5,1.0,6.0,73,0.00,,SKC,0.00,VWS V14.01,2013-04-01 12:58:00,
2013-04-01 08:03:00,30.4,22.8,30.12,NNE,13,0.0,6.0,73,0.00,,SKC,0.00,VWS V14.01,2013-04-01 13:03:00,
2013-04-01 08:08:00,30.6,23.3,30.13,NNE,13,0.0,11.0,74,0.00,,SKC,0.00,VWS V14.01,2013-04-01 13:08:00,
2013-04-01 08:13:00,30.6,22.7,30.13,NNE,25,2.0,11.0,72,0.00,,SKC,0.00,VWS V14.01,2013-04-01 13:13:00,
2013-04-01 08:18:00,30.6,22.7,30.14,North,360,6.0,9.0,72,0.00,,SKC,0.00,VWS V14.01,2013-04-01 13:18:00,
2013-04-01 08:23:00,30.6,22.7,30.14,North,11,3.0,9.0,72,0.00,,SKC,0.00,VWS V14.01,2013-04-01 13:23:00,
2013-04-01 08:28:00,30.6,22.7,30.14,NNE,17,3.0,10.0,72,0.00,,SKC,0.00,VWS V14.01,2013-04-01 13:28:00,
2013-04-01 08:33:00,30.8,22.5,30.14,NNE,14,5.0,10.0,71,0.00,,SKC,0.00,VWS V14.01,2013-04-01 13:33:00,
2013-04-01 08:38:00,31.0,22.0,30.14,North,5,3.0,8.0,69,0.00,,SKC,0.00,VWS V14.01,2013-04-01 13:38:00,
2013-04-01 08:43:00,30.9,21.9,30.14,NNE,15,4.0,10.0,69,0.00,,SKC,0.00,VWS V14.01,2013-04-01 13:43:00,
2013-04-01 08:48:00,31.0,22.0,30.15,NE,36,6.0,10.0,69,0.00,,SKC,0.00,VWS V14.01,2013-04-01 13:48:00,
2013-04-01 08:53:00,31.1,22.5,30.15,NNE,32,7.0,10.0,70,0.00,,SKC,0.00,VWS V14.01,2013-04-01 13:53:00,
2013-04-01 08:58:00,31.4,21.7,30.15,NNE,13,5.0,12.0,67,0.00,,SKC,0.00,VWS V14.01,2013-04-01 13:58:00,
2013-04-01 09:03:00,31.3,21.6,30.15,North,5,9.0,13.0,67,0.00,,SKC,0.00,VWS V14.01,2013-04-01 14:03:00,
2013-04-01 09:08:00,31.1,21.8,30.15,North,11,4.0,15.0,68,0.00,,SKC,0.00,VWS V14.01,2013-04-01 14:08:00,
2013-04-01 09:13:00,31.2,21.5,30.15,NNE,24,5.0,15.0,67,0.00,,SKC,0.00,VWS V14.01,2013-04-01 14:13:00,
2013-04-01 09:18:00,31.6,21.9,30.14,NE,46,11.0,12.0,67,0.00,,SKC,0.00,VWS V14.01,2013-04-01 14:18:00,
2013-04-01 09:23:00,31.9,21.9,30.15,NE,45,7.0,14.0,66,0.00,,SKC,0.00,VWS V14.01,2013-04-01 14:23:00,
2013-04-01 09:28:00,32.3,21.1,30.16,NNE,17,4.0,12.0,63,0.00,,SKC,0.00,VWS V14.01,2013-04-01 14:28:00,
2013-04-01 09:33:00,32.6,20.7,30.16,NNE,28,9.0,12.0,61,0.00,,SKC,0.00,VWS V14.01,2013-04-01 14:33:00,
2013-04-01 09:39:00,33.0,21.0,30.16,NNE,32,4.0,10.0,61,0.00,,SKC,0.00,VWS V14.01,2013-04-01 14:39:00,
2013-04-01 09:43:00,33.5,21.1,30.16,NNE,14,6.0,13.0,60,0.00,,SKC,0.00,VWS V14.01,2013-04-01 14:43:00,
2013-04-01 09:49:00,33.9,21.1,30.16,North,355,4.0,9.0,59,0.00,,SKC,0.00,VWS V14.01,2013-04-01 14:49:00,
2013-04-01 09:54:00,34.4,21.6,30.16,NNE,30,6.0,9.0,59,0.00,,SKC,0.00,VWS V14.01,2013-04-01 14:54:00,
2013-04-01 09:59:00,34.2,21.0,30.16,North,11,5.0,11.0,58,0.00,,SKC,0.00,VWS V14.01,2013-04-01 14:59:00,
2013-04-01 10:04:00,34.1,21.3,30.16,NE,38,7.0,11.0,59,0.00,,SKC,0.00,VWS V14.01,2013-04-01 15:04:00,
2013-04-01 10:09:00,33.8,21.4,30.16,NE,41,8.0,13.0,60,0.00,,SKC,0.00,VWS V14.01,2013-04-01 15:09:00,
2013-04-01 10:14:00,33.7,21.3,30.16,NNE,23,4.0,6.0,60,0.00,,SKC,0.00,VWS V14.01,2013-04-01 15:14:00,
2013-04-01 10:19:00,33.8,21.4,30.16,NE,41,4.0,10.0,60,0.00,,SKC,0.00,VWS V14.01,2013-04-01 15:19:00,
2013-04-01 10:24:00,33.7,21.7,30.16,NNE,33,4.0,5.0,61,0.00,,SKC,0.00,VWS V14.01,2013-04-01 15:24:00,
2013-04-01 10:29:00,33.9,21.9,30.16,NNE,31,1.0,9.0,61,0.00,,SKC,0.00,VWS V14.01,2013-04-01 15:29:00,
2013-04-01 10:34:00,34.4,21.6,30.16,NE,35,9.0,11.0,59,0.00,,SKC,0.00,VWS V14.01,2013-04-01 15:34:00,
2013-04-01 10:39:00,34.4,21.2,30.16,North,5,1.0,11.0,58,0.00,,SKC,0.00,VWS V14.01,2013-04-01 15:39:00,
2013-04-01 10:44:00,34.9,21.2,30.16,NE,40,4.0,5.0,57,0.00,,SKC,0.00,VWS V14.01,2013-04-01 15:44:00,
2013-04-01 10:49:00,35.2,20.7,30.16,NNE,33,3.0,13.0,55,0.00,,SKC,0.00,VWS V14.01,2013-04-01 15:49:00,
2013-04-01 10:54:00,35.5,21.0,30.16,NE,42,4.0,4.0,55,0.00,,SKC,0.00,VWS V14.01,2013-04-01 15:54:00,
2013-04-01 10:59:00,35.9,20.5,30.17,NNE,19,3.0,10.0,53,0.00,,SKC,0.00,VWS V14.01,2013-04-01 15:59:00,
2013-04-01 11:04:00,36.4,20.9,30.17,NNE,17,4.0,4.0,53,0.00,,SKC,0.00,VWS V14.01,2013-04-01 16:04:00,
2013-04-01 11:09:00,36.8,19.9,30.17,NNW,345,3.0,12.0,50,0.00,,SKC,0.00,VWS V14.01,2013-04-01 16:09:00,
2013-04-01 11:14:00,37.0,19.1,30.17,North,11,5.0,5.0,48,0.00,,SKC,0.00,VWS V14.01,2013-04-01 16:14:00,
2013-04-01 11:19:00,37.2,19.3,30.17,North,11,3.0,9.0,48,0.00,,SKC,0.00,VWS V14.01,2013-04-01 16:19:00,
2013-04-01 11:24:00,37.4,18.0,30.17,North,5,0.0,4.0,45,0.00,,SKC,0.00,VWS V14.01,2013-04-01 16:24:00,
2013-04-01 11:29:00,37.7,20.3,30.17,NNW,331,2.0,10.0,49,0.00,,SKC,0.00,VWS V14.01,2013-04-01 16:29:00,
2013-04-01 11:34:00,38.2,20.2,30.17,North,355,4.0,6.0,48,0.00,,SKC,0.00,VWS V14.01,2013-04-01 16:34:00,
2013-04-01 11:39:00,38.2,19.8,30.17,NNW,332,2.0,11.0,47,0.00,,SKC,0.00,VWS V14.01,2013-04-01 16:39:00,
2013-04-01 11:44:00,38.1,20.2,30.17,NNE,16,4.0,4.0,48,0.00,,SKC,0.00,VWS V14.01,2013-04-01 16:44:00,
2013-04-01 11:49:00,38.1,20.6,30.17,North,360,1.0,10.0,49,0.00,,SKC,0.00,VWS V14.01,2013-04-01 16:49:00,
2013-04-01 11:54:00,38.6,20.1,30.17,North,360,3.0,7.0,47,0.00,,SKC,0.00,VWS V14.01,2013-04-01 16:54:00,
2013-04-01 12:02:00,38.8,20.3,30.17,NNE,26,1.0,3.0,47,0.00,,SKC,0.00,VWS V14.01,2013-04-01 17:02:00,
2013-04-01 12:07:00,38.9,20.4,30.17,NE,44,6.0,11.0,47,0.00,,SKC,0.00,VWS V14.01,2013-04-01 17:07:00,
2013-04-01 12:12:00,38.4,19.4,30.17,NE,39,0.0,11.0,46,0.00,,SKC,0.00,VWS V14.01,2013-04-01 17:12:00,
2013-04-01 12:17:00,38.3,19.4,30.17,NNE,17,5.0,10.0,46,0.00,,SKC,0.00,VWS V14.01,2013-04-01 17:17:00,
2013-04-01 12:22:00,38.5,18.0,30.17,North,5,3.0,10.0,43,0.00,,SKC,0.00,VWS V14.01,2013-04-01 17:22:00,
2013-04-01 12:27:00,38.9,18.3,30.17,NNE,25,2.0,7.0,43,0.00,,SKC,0.00,VWS V14.01,2013-04-01 17:27:00,
2013-04-01 12:32:00,39.4,18.2,30.16,NNE,18,5.0,11.0,42,0.00,,SKC,0.00,VWS V14.01,2013-04-01 17:32:00,
2013-04-01 12:37:00,39.6,17.9,30.16,NNE,12,6.0,12.0,41,0.00,,SKC,0.00,VWS V14.01,2013-04-01 17:37:00,
2013-04-01 12:42:00,39.6,19.5,30.17,NNE,13,4.0,12.0,44,0.00,,SKC,0.00,VWS V14.01,2013-04-01 17:42:00,
2013-04-01 12:47:00,39.6,20.0,30.16,NNE,25,4.0,10.0,45,0.00,,SKC,0.00,VWS V14.01,2013-04-01 17:47:00,
2013-04-01 12:53:00,39.4,18.2,30.16,NE,36,3.0,11.0,42,0.00,,SKC,0.00,VWS V14.01,2013-04-01 17:53:00,
2013-04-01 12:58:00,39.6,20.0,30.16,NNE,26,2.0,7.0,45,0.00,,SKC,0.00,VWS V14.01,2013-04-01 17:58:00,
2013-04-01 13:03:00,40.2,19.5,30.16,NE,34,5.0,12.0,43,0.00,,SKC,0.00,VWS V14.01,2013-04-01 18:03:00,
2013-04-01 13:08:00,40.4,19.1,30.16,NNE,24,2.0,9.0,42,0.00,,SKC,0.00,VWS V14.01,2013-04-01 18:08:00,
2013-04-01 13:13:00,40.4,18.6,30.16,North,350,4.0,10.0,41,0.00,,SKC,0.00,VWS V14.01,2013-04-01 18:13:00,
2013-04-01 13:18:00,40.4,18.0,30.16,NNE,33,0.0,10.0,40,0.00,,SKC,0.00,VWS V14.01,2013-04-01 18:18:00,
2013-04-01 13:23:00,41.1,19.8,30.16,NE,37,6.0,11.0,42,0.00,,SKC,0.00,VWS V14.01,2013-04-01 18:23:00,
2013-04-01 13:28:00,41.4,19.5,30.17,NNW,333,11.0,11.0,41,0.00,,SKC,0.00,VWS V14.01,2013-04-01 18:28:00,
2013-04-01 13:33:00,41.7,19.8,30.16,NE,34,5.0,11.0,41,0.00,,SKC,0.00,VWS V14.01,2013-04-01 18:33:00,
2013-04-01 13:38:00,42.1,20.1,30.17,NNE,24,3.0,7.0,41,0.00,,SKC,0.00,VWS V14.01,2013-04-01 18:38:00,
2013-04-01 13:43:00,42.6,20.0,30.17,NNE,24,5.0,14.0,40,0.00,,SKC,0.00,VWS V14.01,2013-04-01 18:43:00,
2013-04-01 13:48:00,42.8,19.6,30.17,NNE,28,5.0,10.0,39,0.00,,SKC,0.00,VWS V14.01,2013-04-01 18:48:00,
2013-04-01 13:53:00,43.1,19.8,30.17,NNE,14,6.0,10.0,39,0.00,,SKC,0.00,VWS V14.01,2013-04-01 18:53:00,
2013-04-01 13:58:00,43.2,19.3,30.17,NE,42,4.0,12.0,38,0.00,,SKC,0.00,VWS V14.01,2013-04-01 18:58:00,
2013-04-01 14:03:00,43.7,19.1,30.17,NNE,19,5.0,15.0,37,0.00,,SKC,0.00,VWS V14.01,2013-04-01 19:03:00,
2013-04-01 14:08:00,43.8,19.2,30.17,NNE,26,3.0,10.0,37,0.00,,SKC,0.00,VWS V14.01,2013-04-01 19:08:00,
2013-04-01 14:13:00,43.9,20.0,30.17,North,5,4.0,10.0,38,0.00,,SKC,0.00,VWS V14.01,2013-04-01 19:13:00,
2013-04-01 14:18:00,43.9,20.0,30.17,NNE,31,2.0,6.0,38,0.00,,SKC,0.00,VWS V14.01,2013-04-01 19:18:00,
2013-04-01 14:23:00,44.1,20.1,30.17,NNE,17,2.0,10.0,38,0.00,,SKC,0.00,VWS V14.01,2013-04-01 19:23:00,
2013-04-01 14:28:00,43.7,20.4,30.17,NNE,28,5.0,7.0,39,0.00,,SKC,0.00,VWS V14.01,2013-04-01 19:28:00,
2013-04-01 14:33:00,43.6,20.3,30.17,NE,40,5.0,9.0,39,0.00,,SKC,0.00,VWS V14.01,2013-04-01 19:33:00,
2013-04-01 14:38:00,43.5,19.6,30.16,NNW,340,2.0,11.0,38,0.00,,SKC,0.00,VWS V14.01,2013-04-01 19:38:00,
2013-04-01 14:43:00,43.7,19.8,30.16,NE,48,4.0,11.0,38,0.00,,SKC,0.00,VWS V14.01,2013-04-01 19:43:00,
2013-04-01 14:48:00,43.4,18.9,30.16,NE,46,6.0,6.0,37,0.00,,SKC,0.00,VWS V14.01,2013-04-01 19:48:00,
2013-04-01 14:53:00,43.2,18.7,30.15,North,360,0.0,9.0,37,0.00,,SKC,0.00,VWS V14.01,2013-04-01 19:53:00,
2013-04-01 14:58:00,43.2,19.9,30.15,NNE,25,1.0,7.0,39,0.00,,SKC,0.00,VWS V14.01,2013-04-01 19:58:00,
2013-04-01 15:03:00,43.1,21.0,30.15,NE,35,2.0,8.0,41,0.00,,SKC,0.00,VWS V14.01,2013-04-01 20:03:00,
2013-04-01 15:08:00,43.3,21.8,30.15,NE,44,6.0,6.0,42,0.00,,SKC,0.00,VWS V14.01,2013-04-01 20:08:00,
2013-04-01 15:13:00,43.7,20.4,30.15,NNE,14,7.0,9.0,39,0.00,,SKC,0.00,VWS V14.01,2013-04-01 20:13:00,
2013-04-01 15:18:00,44.1,20.1,30.15,North,5,4.0,9.0,38,0.00,,SKC,0.00,VWS V14.01,2013-04-01 20:18:00,
2013-04-01 15:23:00,44.5,21.1,30.14,NNE,32,4.0,11.0,39,0.00,,SKC,0.00,VWS V14.01,2013-04-01 20:23:00,
2013-04-01 15:28:00,44.7,20.7,30.14,NE,39,5.0,10.0,38,0.00,,SKC,0.00,VWS V14.01,2013-04-01 20:28:00,
2013-04-01 15:33:00,45.0,21.5,30.13,North,355,3.0,10.0,39,0.00,,SKC,0.00,VWS V14.01,2013-04-01 20:33:00,
2013-04-01 15:38:00,45.4,21.9,30.13,NNE,21,5.0,11.0,39,0.00,,SKC,0.00,VWS V14.01,2013-04-01 20:38:00,
2013-04-01 15:43:00,45.7,21.6,30.13,NNE,24,4.0,11.0,38,0.00,,SKC,0.00,VWS V14.01,2013-04-01 20:43:00,
2013-04-01 15:49:00,45.7,20.3,30.12,NNW,336,2.0,9.0,36,0.00,,SKC,0.00,VWS V14.01,2013-04-01 20:49:00,
2013-04-01 15:54:00,45.9,21.1,30.13,NNW,333,5.0,11.0,37,0.00,,SKC,0.00,VWS V14.01,2013-04-01 20:54:00,
2013-04-01 15:59:00,45.9,20.5,30.12,NW,321,4.0,15.0,36,0.00,,SKC,0.00,VWS V14.01,2013-04-01 20:59:00,
2013-04-01 16:03:00,46.0,20.6,30.12,NE,34,2.0,15.0,36,0.00,,SKC,0.00,VWS V14.01,2013-04-01 21:03:00,
2013-04-01 16:09:00,45.8,21.6,30.12,North,5,6.0,13.0,38,0.00,,SKC,0.00,VWS V14.01,2013-04-01 21:09:00,
2013-04-01 16:14:00,46.0,21.8,30.12,NE,38,5.0,13.0,38,0.00,,SKC,0.00,VWS V14.01,2013-04-01 21:14:00,
2013-04-01 16:19:00,46.2,21.4,30.12,NW,322,4.0,12.0,37,0.00,,SKC,0.00,VWS V14.01,2013-04-01 21:19:00,
2013-04-01 16:24:00,46.3,20.8,30.12,North,355,3.0,13.0,36,0.00,,SKC,0.00,VWS V14.01,2013-04-01 21:24:00,
2013-04-01 16:29:00,46.2,20.7,30.12,NNE,25,3.0,11.0,36,0.00,,SKC,0.00,VWS V14.01,2013-04-01 21:29:00,
2013-04-01 16:34:00,46.3,20.8,30.11,NNE,21,5.0,11.0,36,0.00,,SKC,0.00,VWS V14.01,2013-04-01 21:34:00,
2013-04-01 16:39:00,46.3,20.8,30.11,NNE,18,5.0,9.0,36,0.00,,SKC,0.00,VWS V14.01,2013-04-01 21:39:00,
2013-04-01 16:44:00,46.3,20.2,30.11,NE,38,7.0,9.0,35,0.00,,SKC,0.00,VWS V14.01,2013-04-01 21:44:00,
2013-04-01 16:49:00,46.3,20.8,30.11,NE,44,6.0,13.0,36,0.00,,SKC,0.00,VWS V14.01,2013-04-01 21:49:00,
2013-04-01 16:54:00,45.9,19.8,30.11,NNE,27,3.0,13.0,35,0.00,,SKC,0.00,VWS V14.01,2013-04-01 21:54:00,
2013-04-01 16:59:00,45.9,19.8,30.11,NNE,15,6.0,10.0,35,0.00,,SKC,0.00,VWS V14.01,2013-04-01 21:59:00,
2013-04-01 17:04:00,45.8,19.7,30.11,NE,39,3.0,12.0,35,0.00,,SKC,0.00,VWS V14.01,2013-04-01 22:04:00,
2013-04-01 17:09:00,45.5,20.1,30.10,NE,35,6.0,12.0,36,0.00,,SKC,0.00,VWS V14.01,2013-04-01 22:09:00,
2013-04-01 17:14:00,45.3,19.9,30.10,NNE,32,5.0,8.0,36,0.00,,SKC,0.00,VWS V14.01,2013-04-01 22:14:00,
2013-04-01 17:19:00,45.3,18.6,30.10,NNE,26,3.0,8.0,34,0.00,,SKC,0.00,VWS V14.01,2013-04-01 22:19:00,
2013-04-01 17:24:00,45.3,20.6,30.10,NNE,28,4.0,4.0,37,0.00,,SKC,0.00,VWS V14.01,2013-04-01 22:24:00,
2013-04-01 17:29:00,45.3,19.3,30.10,NNE,32,6.0,10.0,35,0.00,,SKC,0.00,VWS V14.01,2013-04-01 22:29:00,
2013-04-01 17:34:00,45.4,20.0,30.10,NNE,30,2.0,6.0,36,0.00,,SKC,0.00,VWS V14.01,2013-04-01 22:34:00,
2013-04-01 17:39:00,45.5,19.5,30.10,North,5,5.0,8.0,35,0.00,,SKC,0.00,VWS V14.01,2013-04-01 22:39:00,
2013-04-01 17:44:00,45.6,19.5,30.11,North,11,3.0,3.0,35,0.00,,SKC,0.00,VWS V14.01,2013-04-01 22:44:00,
2013-04-01 17:49:00,45.6,18.9,30.10,NNE,28,5.0,9.0,34,0.00,,SKC,0.00,VWS V14.01,2013-04-01 22:49:00,
2013-04-01 17:54:00,45.4,19.4,30.10,NNE,25,2.0,2.0,35,0.00,,SKC,0.00,VWS V14.01,2013-04-01 22:54:00,
2013-04-01 17:59:00,45.4,19.4,30.10,North,5,2.0,7.0,35,0.00,,SKC,0.00,VWS V14.01,2013-04-01 22:59:00,
2013-04-01 18:04:00,45.4,18.7,30.10,NNE,26,5.0,5.0,34,0.00,,SKC,0.00,VWS V14.01,2013-04-01 23:04:00,
2013-04-01 18:09:00,45.4,20.0,30.10,NE,36,2.0,6.0,36,0.00,,SKC,0.00,VWS V14.01,2013-04-01 23:09:00,
2013-04-01 18:14:00,45.0,19.7,30.10,NE,39,3.0,5.0,36,0.00,,SKC,0.00,VWS V14.01,2013-04-01 23:14:00,
2013-04-01 18:19:00,45.0,19.7,30.10,NE,41,3.0,5.0,36,0.00,,SKC,0.00,VWS V14.01,2013-04-01 23:19:00,
2013-04-01 18:24:00,44.7,19.4,30.10,NE,38,5.0,6.0,36,0.00,,SKC,0.00,VWS V14.01,2013-04-01 23:24:00,
2013-04-01 18:29:00,44.2,19.0,30.10,NNE,24,3.0,9.0,36,0.00,,SKC,0.00,VWS V14.01,2013-04-01 23:29:00,
2013-04-01 18:34:00,44.0,18.8,30.10,NE,43,4.0,4.0,36,0.00,,SKC,0.00,VWS V14.01,2013-04-01 23:34:00,
2013-04-01 18:39:00,43.6,19.1,30.10,NE,34,4.0,9.0,37,0.00,,SKC,0.00,VWS V14.01,2013-04-01 23:39:00,
2013-04-01 18:44:00,43.3,19.4,30.10,NNE,31,5.0,5.0,38,0.00,,SKC,0.00,VWS V14.01,2013-04-01 23:44:00,
2013-04-01 18:49:00,43.1,19.2,30.10,NNE,25,5.0,9.0,38,0.00,,SKC,0.00,VWS V14.01,2013-04-01 23:49:00,
2013-04-01 18:54:00,42.9,18.4,30.10,NNE,20,3.0,4.0,37,0.00,,SKC,0.00,VWS V14.01,2013-04-01 23:54:00,
2013-04-01 18:59:00,42.7,19.5,30.10,NNE,32,2.0,7.0,39,0.00,,SKC,0.00,VWS V14.01,2013-04-01 23:59:00,
2013-04-01 19:04:00,42.5,19.3,30.10,NE,42,5.0,7.0,39,0.00,,SKC,0.00,VWS V14.01,2013-04-02 00:04:00,
2013-04-01 19:09:00,42.2,19.6,30.09,NE,36,4.0,7.0,40,0.00,,SKC,0.00,VWS V14.01,2013-04-02 00:09:00,
2013-04-01 19:14:00,41.9,19.4,30.10,NE,34,0.0,9.0,40,0.00,,SKC,0.00,VWS V14.01,2013-04-02 00:14:00,
2013-04-01 19:19:00,41.5,19.6,30.10,NE,34,4.0,5.0,41,0.00,,SKC,0.00,VWS V14.01,2013-04-02 00:19:00,
2013-04-01 19:24:00,41.2,19.3,30.10,NE,44,4.0,5.0,41,0.00,,SKC,0.00,VWS V14.01,2013-04-02 00:24:00,
2013-04-01 19:29:00,41.0,19.7,30.10,NE,42,0.0,5.0,42,0.00,,SKC,0.00,VWS V14.01,2013-04-02 00:29:00,
2013-04-01 19:34:00,40.7,20.0,30.10,NE,42,2.0,3.0,43,0.00,,SKC,0.00,VWS V14.01,2013-04-02 00:34:00,
2013-04-01 19:39:00,40.3,19.0,30.11,NE,42,4.0,6.0,42,0.00,,SKC,0.00,VWS V14.01,2013-04-02 00:39:00,
2013-04-01 19:44:00,40.0,19.3,30.11,NE,42,3.0,3.0,43,0.00,,SKC,0.00,VWS V14.01,2013-04-02 00:44:00,
2013-04-01 19:49:00,39.7,19.6,30.11,NE,42,0.0,3.0,44,0.00,,SKC,0.00,VWS V14.01,2013-04-02 00:49:00,
2013-04-01 19:54:00,39.3,19.8,30.12,NE,42,0.0,1.0,45,0.00,,SKC,0.00,VWS V14.01,2013-04-02 00:54:00,
2013-04-01 20:00:00,38.9,19.4,30.11,NE,42,0.0,1.0,45,0.00,,SKC,0.00,VWS V14.01,2013-04-02 01:00:00,
2013-04-01 20:05:00,38.6,19.1,30.11,NE,42,2.0,3.0,45,0.00,,SKC,0.00,VWS V14.01,2013-04-02 01:05:00,
2013-04-01 20:10:00,38.3,19.4,30.12,NE,42,0.0,3.0,46,0.00,,SKC,0.00,VWS V14.01,2013-04-02 01:10:00,
2013-04-01 20:15:00,37.9,19.5,30.12,NE,42,0.0,0.0,47,0.00,,SKC,0.00,VWS V14.01,2013-04-02 01:15:00,
2013-04-01 20:20:00,37.6,19.7,30.12,NE,42,0.0,0.0,48,0.00,,SKC,0.00,VWS V14.01,2013-04-02 01:20:00,
2013-04-01 20:25:00,37.3,19.4,30.12,NE,42,0.0,0.0,48,0.00,,SKC,0.00,VWS V14.01,2013-04-02 01:25:00,
2013-04-01 20:30:00,36.9,19.5,30.13,NE,42,0.0,0.0,49,0.00,,SKC,0.00,VWS V14.01,2013-04-02 01:30:00,
2013-04-01 20:35:00,36.5,19.2,30.13,NE,42,0.0,0.0,49,0.00,,SKC,0.00,VWS V14.01,2013-04-02 01:35:00,
2013-04-01 20:40:00,36.2,19.4,30.13,NE,42,0.0,0.0,50,0.00,,SKC,0.00,VWS V14.01,2013-04-02 01:40:00,
2013-04-01 20:45:00,36.0,19.2,30.13,NE,42,0.0,0.0,50,0.00,,SKC,0.00,VWS V14.01,2013-04-02 01:45:00,
2013-04-01 20:50:00,35.7,19.4,30.13,NE,42,0.0,0.0,51,0.00,,SKC,0.00,VWS V14.01,2013-04-02 01:50:00,
2013-04-01 20:55:00,35.4,19.1,30.14,NE,42,0.0,0.0,51,0.00,,SKC,0.00,VWS V14.01,2013-04-02 01:55:00,
2013-04-01 21:00:00,35.1,19.3,30.14,NE,42,0.0,0.0,52,0.00,,SKC,0.00,VWS V14.01,2013-04-02 02:00:00,
2013-04-01 21:05:00,34.9,19.1,30.15,NE,42,0.0,0.0,52,0.00,,SKC,0.00,VWS V14.01,2013-04-02 02:05:00,
2013-04-01 21:10:00,34.6,19.2,30.15,NE,42,0.0,0.0,53,0.00,,SKC,0.00,VWS V14.01,2013-04-02 02:10:00,
2013-04-01 21:15:00,34.4,19.0,30.15,NE,42,0.0,0.0,53,0.00,,SKC,0.00,VWS V14.01,2013-04-02 02:15:00,
2013-04-01 21:20:00,34.4,19.5,30.15,NE,42,0.0,2.0,54,0.00,,SKC,0.00,VWS V14.01,2013-04-02 02:20:00,
2013-04-01 21:25:00,34.2,19.3,30.15,NE,42,0.0,0.0,54,0.00,,SKC,0.00,VWS V14.01,2013-04-02 02:25:00,
2013-04-01 21:31:00,34.0,19.1,30.15,NE,42,0.0,0.0,54,0.00,,SKC,0.00,VWS V14.01,2013-04-02 02:31:00,
2013-04-01 21:36:00,33.8,19.4,30.16,NE,42,0.0,0.0,55,0.00,,SKC,0.00,VWS V14.01,2013-04-02 02:36:00,
2013-04-01 21:41:00,33.7,19.3,30.16,NE,42,0.0,3.0,55,0.00,,SKC,0.00,VWS V14.01,2013-04-02 02:41:00,
2013-04-01 21:46:00,33.5,19.5,30.16,NE,42,0.0,0.0,56,0.00,,SKC,0.00,VWS V14.01,2013-04-02 02:46:00,
2013-04-01 21:51:00,33.4,19.4,30.16,NE,42,0.0,0.0,56,0.00,,SKC,0.00,VWS V14.01,2013-04-02 02:51:00,
2013-04-01 21:56:00,33.3,19.3,30.17,NE,42,0.0,0.0,56,0.00,,SKC,0.00,VWS V14.01,2013-04-02 02:56:00,
2013-04-01 22:01:00,33.1,19.5,30.17,NE,42,2.0,2.0,57,0.00,,SKC,0.00,VWS V14.01,2013-04-02 03:01:00,
2013-04-01 22:06:00,32.9,19.4,30.17,NE,42,0.0,0.0,57,0.00,,SKC,0.00,VWS V14.01,2013-04-02 03:06:00,
2013-04-01 22:11:00,32.8,19.3,30.17,NE,42,0.0,0.0,57,0.00,,SKC,0.00,VWS V14.01,2013-04-02 03:11:00,
2013-04-01 22:16:00,32.5,19.0,30.17,NE,42,0.0,0.0,57,0.00,,SKC,0.00,VWS V14.01,2013-04-02 03:16:00,
2013-04-01 22:21:00,32.3,19.2,30.18,NE,42,0.0,0.0,58,0.00,,SKC,0.00,VWS V14.01,2013-04-02 03:21:00,
2013-04-01 22:26:00,32.2,19.1,30.18,NE,42,0.0,0.0,58,0.00,,SKC,0.00,VWS V14.01,2013-04-02 03:26:00,
2013-04-01 22:31:00,32.0,18.9,30.18,NE,42,0.0,0.0,58,0.00,,SKC,0.00,VWS V14.01,2013-04-02 03:31:00,
2013-04-01 22:36:00,31.9,18.8,30.18,NE,42,0.0,0.0,58,0.00,,SKC,0.00,VWS V14.01,2013-04-02 03:36:00,
2013-04-01 22:41:00,31.8,18.7,30.18,NE,42,0.0,2.0,58,0.00,,SKC,0.00,VWS V14.01,2013-04-02 03:41:00,
2013-04-01 22:46:00,31.9,18.8,30.19,NE,41,1.0,3.0,58,0.00,,SKC,0.00,VWS V14.01,2013-04-02 03:46:00,
2013-04-01 22:51:00,32.0,18.9,30.18,NE,41,0.0,3.0,58,0.00,,SKC,0.00,VWS V14.01,2013-04-02 03:51:00,
2013-04-01 22:56:00,32.1,19.0,30.19,NE,41,0.0,0.0,58,0.00,,SKC,0.00,VWS V14.01,2013-04-02 03:56:00,
2013-04-01 23:00:00,32.1,19.0,30.19,NE,41,0.0,0.0,58,0.00,,SKC,0.00,VWS V14.01,2013-04-02 04:00:00,
2013-04-01 23:05:00,31.9,18.8,30.19,NE,41,0.0,0.0,58,0.00,,SKC,0.00,VWS V14.01,2013-04-02 04:05:00,
2013-04-01 23:10:00,31.7,19.0,30.19,NE,41,0.0,0.0,59,0.00,,SKC,0.00,VWS V14.01,2013-04-02 04:10:00,
2013-04-01 23:15:00,31.5,18.8,30.19,NE,41,0.0,0.0,59,0.00,,SKC,0.00,VWS V14.01,2013-04-02 04:15:00,
2013-04-01 23:20:00,31.3,19.0,30.19,NE,41,0.0,0.0,60,0.00,,SKC,0.00,VWS V14.01,2013-04-02 04:20:00,
2013-04-01 23:25:00,31.2,19.0,30.19,NE,41,0.0,0.0,60,0.00,,SKC,0.00,VWS V14.01,2013-04-02 04:25:00,
2013-04-01 23:30:00,31.1,18.9,30.19,NE,41,0.0,0.0,60,0.00,,SKC,0.00,VWS V14.01,2013-04-02 04:30:00,
2013-04-01 23:36:00,31.0,19.1,30.19,NE,41,0.0,3.0,61,0.00,,SKC,0.00,VWS V14.01,2013-04-02 04:36:00,
2013-04-01 23:41:00,30.9,19.0,30.19,NE,41,2.0,3.0,61,0.00,,SKC,0.00,VWS V14.01,2013-04-02 04:41:00,
2013-04-01 23:46:00,30.7,18.9,30.19,NE,41,0.0,0.0,61,0.00,,SKC,0.00,VWS V14.01,2013-04-02 04:46:00,
2013-04-01 23:51:00,30.5,19.0,30.18,NE,41,0.0,1.0,62,0.00,,SKC,0.00,VWS V14.01,2013-04-02 04:51:00,
2013-04-01 23:56:00,30.3,18.9,30.18,NE,41,0.0,1.0,62,0.00,,SKC,0.00,VWS V14.01,2013-04-02 04:56:00,